EW9622 Weather Reports


time (UTC)temp
C
wind
direction
speed
KPH
gust
KPH
rain 1hr
cm
rain 24hr
cm
rain mn
cm
humidity
%
barometer
mb
20260507160048 16 355 0.0 0.0 0.00 0.00 0.00 85 1016.7
20260507155546 16 204 0.0 0.0 0.00 0.00 0.00 85 1016.8
20260507155045 16 355 0.0 0.0 0.00 0.00 0.00 87 1016.8
20260507154544 16 211 0.0 0.0 0.00 0.00 0.00 88 1016.8
20260507154043 15 355 0.0 0.0 0.00 0.00 0.00 90 1016.8
20260507153540 15 240 0.0 0.0 0.00 0.00 0.00 91 1016.8
20260507153039 15 243 0.0 0.0 0.00 0.00 0.00 91 1016.8
20260507152539 15 243 0.0 0.0 0.00 0.00 0.00 91 1016.8
20260507152039 15 243 0.0 0.0 0.00 0.00 0.00 92 1016.8
20260507151537 14 237 0.0 0.0 0.00 0.00 0.00 93 1016.8
20260507151036 14 237 0.0 0.0 0.00 0.00 0.00 93 1016.7
20260507150538 13 355 0.0 0.0 0.00 0.00 0.00 93 1016.7
20260507150035 13 355 0.0 0.0 0.00 0.00 0.00 93 1016.6
20260507145535 13 355 0.0 0.0 0.00 0.00 0.00 93 1016.7
20260507145033 13 237 0.0 0.0 0.00 0.00 0.00 93 1016.7
20260507144535 13 355 0.0 0.0 0.00 0.00 0.00 93 1016.8
20260507144032 13 237 0.0 0.0 0.00 0.00 0.00 94 1016.8
20260507143530 13 237 0.0 0.0 0.00 0.00 0.00 94 1016.7
20260507143033 13 237 0.0 0.0 0.00 0.00 0.00 93 1016.6
20260507142530 12 236 0.0 0.0 0.00 0.00 0.00 94 1016.5
20260507142029 12 236 0.0 0.0 0.00 0.00 0.00 94 1016.5
20260507141530 12 236 0.0 0.0 0.00 0.00 0.00 94 1016.5
20260507141030 12 236 0.0 0.0 0.00 0.00 0.00 94 1016.5
20260507140529 12 236 0.0 0.0 0.00 0.00 0.00 94 1016.5
20260507140030 11 236 0.0 0.0 0.00 0.00 0.00 94 1016.4
20260507135528 11 236 0.0 0.0 0.00 0.00 0.00 94 1016.4
20260507135028 11 236 0.0 0.0 0.00 0.00 0.00 94 1016.3
20260507134529 11 236 0.0 0.0 0.00 0.00 0.00 94 1016.3
20260507134032 11 236 0.0 0.0 0.00 0.00 0.00 94 1016.3
20260507133528 11 236 0.0 0.0 0.00 0.00 0.00 94 1016.3
20260507133028 11 236 0.0 0.0 0.00 0.00 0.00 94 1016.3
20260507132528 11 236 0.0 0.0 0.00 0.00 0.00 94 1016.3
20260507132027 11 236 0.0 0.0 0.00 0.00 0.00 94 1016.3
20260507131536 11 236 0.0 0.0 0.00 0.00 0.00 94 1016.3
20260507131028 10 236 0.0 0.0 0.00 0.00 0.00 94 1016.3
20260507130529 10 236 0.0 0.0 0.00 0.00 0.00 94 1016.3
20260507130027 10 236 0.0 0.0 0.00 0.00 0.00 94 1016.3
20260507125527 10 236 0.0 0.0 0.00 0.00 0.00 94 1016.2
20260507125026 10 231 0.0 0.0 0.00 0.00 0.00 94 1016.1
20260507124526 10 231 0.0 0.0 0.00 0.00 0.00 94 1016.0
20260507124028 10 231 0.0 0.0 0.00 0.00 0.00 94 1016.0
20260507123526 10 231 0.0 0.0 0.00 0.00 0.00 93 1015.9
20260507123028 10 231 0.0 0.0 0.00 0.00 0.00 93 1015.9
20260507122525 10 231 0.0 0.0 0.00 0.00 0.00 93 1016.0
20260507122027 10 231 0.0 0.0 0.00 0.00 0.00 93 1016.0
20260507121525 10 231 0.0 0.0 0.00 0.00 0.00 93 1016.0
20260507121026 10 231 0.0 0.0 0.00 0.00 0.00 93 1015.9
20260507120527 10 231 0.0 0.0 0.00 0.00 0.00 93 1016.0
20260507120024 10 231 0.0 0.0 0.00 0.00 0.00 93 1016.0
20260507115525 10 231 0.0 0.0 0.00 0.00 0.00 93 1016.0
20260507115026 10 231 0.0 0.0 0.00 0.00 0.00 93 1016.0
20260507114523 10 231 0.0 0.0 0.00 0.00 0.00 93 1016.0
20260507114023 10 231 0.0 0.0 0.00 0.00 0.00 93 1015.8
20260507113523 10 231 0.0 0.0 0.00 0.00 0.00 93 1016.0
20260507113023 10 231 0.0 0.0 0.00 0.00 0.00 93 1016.0
20260507112521 10 231 0.0 0.0 0.00 0.00 0.00 93 1015.8
20260507112020 10 231 0.0 0.0 0.00 0.00 0.00 93 1016.0
20260507111519 10 231 0.0 0.0 0.00 0.00 0.00 93 1016.0
20260507111019 10 231 0.0 0.0 0.00 0.00 0.00 93 1016.1
20260507110519 10 231 0.0 0.0 0.00 0.00 0.00 93 1016.1
20260507110018 11 231 0.0 0.0 0.00 0.00 0.00 93 1016.1
20260507105517 11 231 0.0 0.0 0.00 0.00 0.00 93 1016.0
20260507105017 11 231 0.0 0.0 0.00 0.00 0.00 93 1016.1
20260507104525 11 231 0.0 0.0 0.00 0.00 0.00 92 1016.1
20260507104017 11 231 0.0 0.0 0.00 0.00 0.00 92 1016.1
20260507103516 11 231 0.0 0.0 0.00 0.00 0.00 93 1016.1
20260507103017 11 231 0.0 0.0 0.00 0.00 0.00 92 1016.2
20260507102514 11 231 0.0 0.0 0.00 0.00 0.00 92 1016.2
20260507102015 11 231 0.0 0.0 0.00 0.00 0.00 92 1016.3
20260507101515 11 231 0.0 0.0 0.00 0.00 0.00 93 1016.3
20260507101012 11 231 0.0 0.0 0.00 0.00 0.00 93 1016.4
20260507100511 11 231 0.0 0.0 0.00 0.00 0.00 93 1016.4
20260507100025 11 231 0.0 0.0 0.00 0.00 0.00 92 1016.4
20260507095510 11 231 0.0 0.0 0.00 0.00 0.00 92 1016.4
20260507095014 11 231 0.0 0.0 0.00 0.00 0.00 92 1016.4
20260507094510 11 231 0.0 0.0 0.00 0.00 0.00 92 1016.4
20260507094009 11 231 0.0 0.0 0.00 0.00 0.00 92 1016.4
20260507093508 11 231 0.0 0.0 0.00 0.00 0.00 92 1016.4
20260507093008 11 231 0.0 0.0 0.00 0.00 0.00 92 1016.5
20260507092509 11 231 0.0 0.0 0.00 0.00 0.00 92 1016.6
20260507092006 11 231 0.0 0.0 0.00 0.00 0.00 92 1016.6
20260507091517 11 231 0.0 0.0 0.00 0.00 0.00 92 1016.6
20260507091005 11 231 0.0 0.0 0.00 0.00 0.00 92 1016.7
20260507090504 11 231 0.0 0.0 0.00 0.00 0.00 92 1016.8
20260507090004 11 231 0.0 0.0 0.00 0.00 0.00 92 1016.8
20260507085502 11 231 0.0 0.0 0.00 0.00 0.00 91 1016.8
20260507085002 11 231 0.0 0.0 0.00 0.00 0.00 91 1016.9
20260507084501 12 231 0.0 0.0 0.00 0.00 0.00 91 1017.0
20260507084100 12 231 0.0 0.0 0.00 0.00 0.00 91 1017.0
20260507083602 12 231 0.0 0.0 0.00 0.00 0.00 91 1017.0
20260507083105 12 231 0.0 0.0 0.00 0.00 0.00 91 1017.1
20260507082600 12 231 0.0 0.0 0.00 0.00 0.00 91 1017.0
20260507082058 12 231 0.0 0.0 0.00 0.00 0.00 91 1017.1
20260507081601 12 231 0.0 0.0 0.00 0.00 0.00 91 1017.0
20260507081057 12 231 0.0 0.0 0.00 0.00 0.00 91 1017.1
20260507080555 12 231 0.0 0.0 0.00 0.00 0.00 90 1017.2
20260507080056 12 231 0.0 0.0 0.00 0.00 0.00 90 1017.1
20260507075554 12 231 0.0 0.0 0.00 0.00 0.00 90 1017.1
20260507075054 12 231 0.0 0.0 0.00 0.00 0.00 90 1017.1
20260507074554 12 231 0.0 0.0 0.00 0.00 0.00 90 1017.2
20260507074053 12 231 0.0 0.0 0.00 0.00 0.00 90 1017.3
20260507073552 12 231 0.0 0.0 0.00 0.00 0.00 90 1017.3
20260507073101 12 231 0.0 0.0 0.00 0.00 0.00 90 1017.3
20260507072552 12 231 0.0 0.0 0.00 0.00 0.00 90 1017.2
20260507072051 12 231 0.0 0.0 0.00 0.00 0.00 90 1017.2
20260507071553 12 231 0.0 0.0 0.00 0.00 0.00 89 1017.2
20260507071050 13 231 0.0 0.0 0.00 0.00 0.00 89 1017.2
20260507070549 13 231 0.0 0.0 0.00 0.00 0.00 89 1017.2
20260507070129 13 231 0.0 0.0 0.00 0.00 0.00 89 1017.3
20260507065547 13 231 0.0 0.0 0.00 0.00 0.00 89 1017.4
20260507065047 13 231 0.0 0.0 0.00 0.00 0.00 89 1017.4
20260507064550 13 231 0.0 0.0 0.00 0.00 0.00 89 1017.5
20260507064147 13 231 0.0 0.0 0.00 0.00 0.00 88 1017.5
20260507063546 13 231 0.0 0.0 0.00 0.00 0.00 88 1017.4
20260507063046 13 231 0.0 0.0 0.00 0.00 0.00 88 1017.4
20260507062546 13 231 0.0 0.0 0.00 0.00 0.00 88 1017.5
20260507062046 13 231 0.0 0.0 0.00 0.00 0.00 88 1017.5
20260507061547 13 231 0.0 0.0 0.00 0.00 0.00 87 1017.5
20260507061046 13 231 0.0 0.0 0.00 0.00 0.00 87 1017.5
20260507060546 13 231 0.0 0.0 0.00 0.00 0.00 87 1017.5
20260507060045 13 231 0.0 0.0 0.00 0.00 0.00 87 1017.5
20260507055545 13 231 0.0 0.0 0.00 0.00 0.00 86 1017.4
20260507055046 14 231 0.0 0.0 0.00 0.00 0.00 86 1017.4
20260507054551 14 231 0.0 0.0 0.00 0.00 0.00 86 1017.5
20260507054045 14 231 0.0 0.0 0.00 0.00 0.00 86 1017.4
20260507053545 14 231 0.0 0.0 0.00 0.00 0.00 86 1017.3
20260507053045 14 231 0.0 0.0 0.00 0.00 0.00 86 1017.3
20260507052544 14 231 0.0 0.0 0.00 0.00 0.00 86 1017.3
20260507052045 14 231 0.0 0.0 0.00 0.00 0.00 86 1017.4
20260507051545 14 231 0.0 0.0 0.00 0.00 0.00 86 1017.4
20260507051045 15 231 0.0 0.0 0.00 0.00 0.00 86 1017.4
20260507050544 15 231 0.0 0.0 0.00 0.00 0.00 86 1017.3
20260507050043 15 231 0.0 0.0 0.00 0.00 0.00 86 1017.3
20260507045544 15 231 0.0 0.0 0.00 0.00 0.00 85 1017.3
20260507045044 15 231 0.0 0.0 0.00 0.00 0.00 85 1017.3
20260507044547 15 231 0.0 0.0 0.00 0.00 0.00 84 1017.3
20260507044043 15 231 0.0 0.0 0.00 0.00 0.00 84 1017.3
20260507043543 15 231 0.0 0.0 0.00 0.00 0.00 84 1017.3
20260507043043 15 231 0.0 0.0 0.00 0.00 0.00 84 1017.3
20260507042543 15 231 0.0 0.0 0.00 0.00 0.00 84 1017.2
20260507042042 15 231 0.0 0.0 0.00 0.00 0.00 84 1017.1
20260507041542 16 231 0.0 0.0 0.00 0.00 0.00 84 1017.1
20260507041042 16 231 0.0 0.0 0.00 0.00 0.00 84 1017.1
20260507040542 16 231 0.0 0.0 0.00 0.00 0.00 84 1017.1
20260507040043 16 231 0.0 0.0 0.00 0.00 0.00 84 1017.0
20260507035542 16 231 0.0 0.0 0.00 0.00 0.00 83 1017.0
20260507035041 16 231 0.0 0.0 0.00 0.00 0.00 83 1017.0
20260507034546 16 231 0.0 0.0 0.00 0.00 0.00 82 1016.9
20260507034041 16 231 0.0 0.0 0.00 0.00 0.00 82 1016.9
20260507033544 16 231 0.0 0.0 0.00 0.00 0.00 81 1016.8
20260507033041 16 231 0.0 0.0 0.00 0.00 0.00 81 1016.8
20260507032541 16 231 0.0 0.0 0.00 0.00 0.00 80 1016.7
20260507032041 16 231 0.0 0.0 0.00 0.00 0.00 79 1016.7
20260507031543 17 231 0.0 0.0 0.00 0.00 0.00 78 1016.6
20260507031043 17 231 0.0 0.0 0.00 0.00 0.00 78 1016.6
20260507030539 17 231 0.0 0.0 0.00 0.00 0.00 77 1016.6
20260507030042 17 231 0.0 0.0 0.00 0.00 0.00 76 1016.5
20260507025539 17 231 0.0 0.0 0.00 0.00 0.00 76 1016.5
20260507025039 17 231 0.0 0.0 0.00 0.00 0.00 75 1016.4
20260507024539 17 231 0.0 0.0 0.00 0.00 0.00 74 1016.4
20260507024038 17 237 0.0 0.0 0.00 0.00 0.00 73 1016.4
20260507023539 17 235 0.0 0.0 0.00 0.00 0.00 73 1016.3
20260507023039 17 238 0.0 0.0 0.00 0.00 0.00 72 1016.3
20260507022539 17 258 0.0 0.0 0.00 0.00 0.00 72 1016.3
20260507022039 17 239 0.0 0.0 0.00 0.00 0.00 72 1016.2
20260507021539 17 233 0.0 0.0 0.00 0.00 0.00 72 1016.2
20260507021038 18 225 0.0 0.0 0.00 0.00 0.00 72 1016.2
20260507020538 18 226 0.0 0.0 0.00 0.00 0.00 71 1016.2
20260507020038 18 237 0.0 0.0 0.00 0.00 0.00 70 1016.2
20260507015537 18 257 0.0 0.0 0.00 0.00 0.00 70 1016.1
20260507015037 18 235 0.0 0.0 0.00 0.00 0.00 68 1016.1
20260507014550 18 244 0.0 0.0 0.00 0.00 0.00 67 1016.1
20260507014037 19 241 0.0 0.0 0.00 0.00 0.00 68 1016.1
20260507013537 19 232 0.0 0.0 0.00 0.00 0.00 68 1016.1
20260507013037 19 242 0.0 0.0 0.00 0.00 0.00 68 1016.1
20260507012537 19 239 0.0 0.0 0.00 0.00 0.00 67 1016.1
20260507012036 20 255 0.0 0.0 0.00 0.00 0.00 67 1016.0
20260507011536 20 210 0.0 0.0 0.00 0.00 0.00 67 1016.0
20260507011035 20 231 0.0 0.0 0.00 0.00 0.00 66 1016.0
20260507010535 20 247 0.0 0.0 0.00 0.00 0.00 66 1016.0
20260507010035 20 229 0.0 0.0 0.00 0.00 0.00 64 1016.0
20260507005535 20 230 0.0 0.0 0.00 0.00 0.00 64 1016.0
20260507005034 20 221 0.0 0.0 0.00 0.00 0.00 64 1015.9
20260507004534 20 242 0.0 0.0 0.00 0.00 0.00 65 1015.9
20260507004035 20 242 0.0 0.0 0.00 0.00 0.00 65 1016.0
20260507003534 20 244 0.0 0.0 0.00 0.00 0.00 64 1016.0
20260507003034 20 236 0.0 0.0 0.00 0.00 0.00 62 1016.0
20260507002536 20 231 0.0 0.0 0.00 0.00 0.00 64 1015.9
20260507002035 20 241 0.0 0.0 0.00 0.00 0.00 64 1015.8
20260507001535 20 259 0.0 0.0 0.00 0.00 0.00 63 1015.8
20260507001033 20 238 0.0 0.0 0.00 0.00 0.00 62 1015.7
20260507000533 20 270 0.0 0.0 0.00 0.00 0.00 60 1015.7
20260507000033 20 250 0.0 0.0 0.00 0.00 0.00 60 1015.7
20260506235533 20 241 0.0 0.0 0.00 0.00 0.00 61 1015.7
20260506235032 20 250 0.0 0.0 0.00 0.00 0.00 61 1015.6
20260506234533 20 233 0.0 0.0 0.00 0.00 0.00 62 1015.6
20260506234034 20 255 0.0 0.0 0.00 0.00 0.00 59 1015.6
20260506233532 20 219 0.0 0.0 0.00 0.00 0.00 63 1015.5
20260506233033 20 240 0.0 0.0 0.00 0.00 0.00 63 1015.6
20260506232530 20 224 0.0 0.0 0.00 0.00 0.00 63 1015.6
20260506232030 20 244 0.0 0.0 0.00 0.00 0.00 62 1015.7
20260506231532 21 243 0.0 0.0 0.00 0.00 0.00 63 1015.7
20260506231032 21 197 0.0 0.0 0.00 0.00 0.00 64 1015.7
20260506230529 21 239 0.0 0.0 0.00 0.00 0.00 62 1015.7
20260506230029 21 245 0.0 0.0 0.00 0.00 0.00 64 1015.8
20260506225530 20 306 0.0 0.0 0.00 0.00 0.00 64 1015.8
20260506225028 20 268 0.0 0.0 0.00 0.00 0.00 64 1015.8
20260506224533 21 259 0.0 0.0 0.00 0.00 0.00 64 1015.8
20260506224028 21 254 0.0 0.0 0.00 0.00 0.00 63 1015.9
20260506223527 21 262 0.0 0.0 0.00 0.00 0.00 63 1016.0
20260506223030 21 235 0.0 0.0 0.00 0.00 0.00 64 1015.9
20260506222527 21 244 0.0 0.0 0.00 0.00 0.00 64 1015.9
20260506222028 21 204 0.0 0.0 0.00 0.00 0.00 63 1015.9
20260506221530 21 241 0.0 0.0 0.00 0.00 0.00 63 1016.0
20260506221026 21 312 0.0 0.0 0.00 0.00 0.00 62 1016.1
20260506220526 21 233 0.0 0.0 0.00 0.00 0.00 63 1016.1
20260506220030 21 277 0.0 0.0 0.00 0.00 0.00 63 1016.1
20260506215525 21 259 0.0 0.0 0.00 0.00 0.00 63 1016.2
20260506215024 21 249 0.0 0.0 0.00 0.00 0.00 62 1016.2
20260506214525 21 203 0.0 0.0 0.00 0.00 0.00 61 1016.2
20260506214023 21 260 0.0 0.0 0.00 0.00 0.00 61 1016.2
20260506213522 21 249 0.0 0.0 0.00 0.00 0.00 60 1016.2
20260506213022 21 229 0.0 0.0 0.00 0.00 0.00 60 1016.3
20260506212522 21 264 0.0 0.0 0.00 0.00 0.00 62 1016.2
20260506212023 21 247 0.0 0.0 0.00 0.00 0.00 61 1016.3
20260506211521 21 252 0.0 0.0 0.00 0.00 0.00 62 1016.3
20260506211022 21 227 0.0 0.0 0.00 0.00 0.00 62 1016.3
20260506210525 21 233 0.0 0.0 0.00 0.00 0.00 61 1016.3
20260506210021 21 257 0.0 0.0 0.00 0.00 0.00 61 1016.4
20260506205519 21 200 0.0 0.0 0.00 0.00 0.00 61 1016.4
20260506205018 21 266 0.0 0.0 0.00 0.00 0.00 61 1016.4
20260506204524 21 257 0.0 0.0 0.00 0.00 0.00 60 1016.5
20260506204018 21 209 0.0 0.0 0.00 0.00 0.00 61 1016.5
20260506203517 21 290 0.0 0.0 0.00 0.00 0.00 61 1016.5
20260506203017 21 234 0.0 0.0 0.00 0.00 0.00 61 1016.6
20260506202517 21 19 0.0 0.0 0.00 0.00 0.00 59 1016.5
20260506202017 21 193 0.0 0.0 0.00 0.00 0.00 60 1016.5
20260506201528 21 264 0.0 0.0 0.00 0.00 0.00 60 1016.5
20260506201017 22 253 0.0 0.0 0.00 0.00 0.00 60 1016.6
20260506200515 22 225 0.0 0.0 0.00 0.00 0.00 59 1016.6
20260506200024 21 355 0.0 0.0 0.00 0.00 0.00 60 1016.6
20260506195514 21 355 0.0 0.0 0.00 0.00 0.00 59 1016.7
20260506195016 21 355 0.0 0.0 0.00 0.00 0.00 59 1016.8
20260506194513 22 355 0.0 0.0 0.00 0.00 0.00 59 1016.8
20260506194017 21 355 0.0 0.0 0.00 0.00 0.00 59 1016.9
20260506193511 21 355 0.0 0.0 0.00 0.00 0.00 60 1016.9
20260506193014 21 355 0.0 0.0 0.00 0.00 0.00 58 1017.0
20260506192510 21 355 0.0 0.0 0.00 0.00 0.00 60 1016.9
20260506192010 21 355 0.0 0.0 0.00 0.00 0.00 61 1017.0
20260506191511 21 355 0.0 0.0 0.00 0.00 0.00 61 1017.1
20260506191009 21 355 0.0 0.0 0.00 0.00 0.00 60 1017.2
20260506190509 21 355 0.0 0.0 0.00 0.00 0.00 60 1017.2
20260506190008 21 355 0.0 0.0 0.00 0.00 0.00 59 1017.2
20260506185508 21 355 0.0 0.0 0.00 0.00 0.00 59 1017.3
20260506185007 21 355 0.0 0.0 0.00 0.00 0.00 59 1017.3
20260506184508 21 355 0.0 0.0 0.00 0.00 0.00 59 1017.4
20260506184007 21 355 0.0 0.0 0.00 0.00 0.00 60 1017.4
20260506183507 21 355 0.0 0.0 0.00 0.00 0.00 59 1017.5
20260506183007 21 355 0.0 0.0 0.00 0.00 0.00 58 1017.6
20260506182506 21 355 0.0 0.0 0.00 0.00 0.00 55 1017.6
20260506182009 21 355 0.0 0.0 0.00 0.00 0.00 58 1017.6
20260506181505 21 355 0.0 0.0 0.00 0.00 0.00 57 1017.6
20260506181003 21 23 0.0 0.0 0.00 0.00 0.00 59 1017.6
20260506180502 20 355 0.0 0.0 0.00 0.00 0.00 57 1017.8
20260506180001 20 355 0.0 0.0 0.00 0.00 0.00 58 1017.7
20260506175600 20 355 0.0 0.0 0.00 0.00 0.00 58 1017.8
20260506175102 20 355 0.0 0.0 0.00 0.00 0.00 58 1017.8
20260506174559 20 355 0.0 0.0 0.00 0.00 0.00 61 1017.8
20260506174059 20 355 0.0 0.0 0.00 0.00 0.00 59 1018.1
20260506173557 20 355 0.0 0.0 0.00 0.00 0.00 60 1018.0
20260506173115 20 355 0.0 0.0 0.00 0.00 0.00 60 1018.1
20260506172555 19 355 0.0 0.0 0.00 0.00 0.00 61 1018.2
20260506172055 19 355 0.0 0.0 0.00 0.00 0.00 63 1018.2
20260506171558 19 355 0.0 0.0 0.00 0.00 0.00 63 1018.2
20260506171055 18 355 0.0 0.0 0.00 0.00 0.00 65 1018.3
20260506170552 18 355 0.0 0.0 0.00 0.00 0.00 66 1018.3
20260506170053 18 355 0.0 0.0 0.00 0.00 0.00 65 1018.2
20260506165550 18 355 0.0 0.0 0.00 0.03 0.00 66 1018.2
20260506165048 18 350 0.0 0.0 0.00 0.03 0.00 68 1018.2
20260506164548 17 328 0.0 0.0 0.00 0.03 0.00 68 1018.3
20260506164048 17 251 0.0 0.0 0.00 0.03 0.00 69 1018.2
20260506163545 17 235 0.0 0.0 0.00 0.03 0.00 70 1018.3
20260506163100 17 197 0.0 0.0 0.00 0.03 0.00 70 1018.3
20260506162546 17 270 0.0 0.0 0.00 0.03 0.00 70 1018.3
20260506162043 17 274 0.0 0.0 0.00 0.03 0.00 71 1018.3
20260506161544 17 285 0.0 0.0 0.00 0.03 0.00 71 1018.3
20260506161043 17 278 0.0 0.0 0.00 0.03 0.00 72 1018.3
20260506160541 17 278 0.0 0.0 0.00 0.03 0.00 72 1018.3